When you browse on this site, cookies collect data to enhance your experience and personalize the content and advertising you see.
Visit our Privacy Policy to learn more. By continuing to use the site, you agree to this use of cookies and data.
  • In Latvia
  • List of Countries
  • For 7 days
  • Water Temperature
  • Weather Map
  • Weather Widgets
  • user-avatar
    Login

    Hourly Weather Santiago del Estero

    Today, 9 December, Monday

    Time Temperature Precipitation Wind Pressure Humidity
    00:00 +25°C° 0 mm 1 mps 741 mmHg 42%
    01:00 +24°C° 0 mm 1 mps 741 mmHg 43%
    02:00 +24°C° 0 mm 1 mps 741 mmHg 43%
    03:00 +23°C° 0 mm 1 mps 741 mmHg 44%
    04:00 +23°C° 0 mm 1 mps 741 mmHg 45%
    05:00 +22°C° 0 mm 1 mps 741 mmHg 46%
    06:00 +25°C° 0 mm 1 mps 741 mmHg 42%
    07:00 +28°C° 0 mm 1 mps 742 mmHg 37%
    08:00 +28°C° 0 mm 0 mps 742 mmHg 36%
    09:00 +32°C° 0 mm 1 mps 742 mmHg 32%
    10:00 +34°C° 0 mm 1 mps 742 mmHg 29%
    11:00 +35°C° 0 mm 1 mps 741 mmHg 25%
    12:00 +36°C° 0 mm 1 mps 741 mmHg 23%
    13:00 +38°C° 0 mm 2 mps 740 mmHg 21%
    14:00 +38°C° 0 mm 2 mps 739 mmHg 19%
    15:00 +38°C° 0 mm 2 mps 739 mmHg 19%
    16:00 +38°C° 0 mm 2 mps 738 mmHg 19%
    17:00 +38°C° 0 mm 3 mps 737 mmHg 19%
    18:00 +35°C° 0 mm 2 mps 738 mmHg 23%
    19:00 +31°C° 0 mm 1 mps 738 mmHg 27%
    20:00 +28°C° 0 mm 1 mps 739 mmHg 31%
    21:00 +28°C° 0 mm 1 mps 739 mmHg 30%
    22:00 +28°C° 0 mm 2 mps 739 mmHg 30%
    23:00 +28°C° 0 mm 2 mps 740 mmHg 30%

    Tomorrow, 10 December, Tuesday

    Time Temperature Precipitation Wind Pressure Humidity
    00:00 +27°C° 0 mm 2 mps 739 mmHg 35%
    01:00 +26°C° 0 mm 2 mps 739 mmHg 39%
    02:00 +25°C° 0 mm 2 mps 739 mmHg 44%
    03:00 +25°C° 0 mm 2 mps 739 mmHg 46%
    04:00 +25°C° 0 mm 2 mps 739 mmHg 47%
    05:00 +24°C° 0 mm 2 mps 739 mmHg 49%
    06:00 +26°C° 0 mm 2 mps 739 mmHg 45%
    07:00 +28°C° 0 mm 2 mps 740 mmHg 41%
    08:00 +31°C° 0 mm 3 mps 740 mmHg 38%
    09:00 +34°C° 0 mm 3 mps 740 mmHg 35%
    10:00 +36°C° 0 mm 3 mps 740 mmHg 31%
    11:00 +38°C° 0 mm 3 mps 739 mmHg 28%
    12:00 +39°C° 0 mm 3 mps 739 mmHg 26%
    13:00 +40°C° 0 mm 3 mps 738 mmHg 24%
    14:00 +42°C° 0 mm 3 mps 738 mmHg 22%
    15:00 +42°C° 0 mm 3 mps 737 mmHg 22%
    16:00 +42°C° 0 mm 3 mps 736 mmHg 22%
    17:00 +40°C° 0 mm 3 mps 736 mmHg 22%
    18:00 +38°C° 0 mm 3 mps 736 mmHg 26%
    19:00 +36°C° 0 mm 3 mps 737 mmHg 30%
    20:00 +34°C° 0 mm 3 mps 737 mmHg 33%
    21:00 +33°C° 0 mm 3 mps 737 mmHg 35%
    22:00 +31°C° 0 mm 3 mps 737 mmHg 37%
    23:00 +31°C° 0 mm 3 mps 738 mmHg 38%

    Day after tomorrow, 11 December, Wednesday

    Time Temperature Precipitation Wind Pressure Humidity
    00:00 +30°C° 0 mm 3 mps 737 mmHg 41%
    01:00 +29°C° 0 mm 3 mps 737 mmHg 43%
    02:00 +29°C° 0 mm 3 mps 736 mmHg 46%
    03:00 +28°C° 0 mm 3 mps 736 mmHg 47%
    04:00 +28°C° 0 mm 3 mps 736 mmHg 48%
    05:00 +27°C° 0 mm 3 mps 736 mmHg 49%
    06:00 +29°C° 0 mm 4 mps 736 mmHg 45%
    07:00 +32°C° 0 mm 5 mps 736 mmHg 42%
    08:00 +34°C° 0 mm 6 mps 736 mmHg 38%
    09:00 +38°C° 0 mm 6 mps 736 mmHg 33%
    10:00 +40°C° 0 mm 7 mps 736 mmHg 29%
    11:00 +43°C° 0 mm 7 mps 735 mmHg 25%
    12:00 +44°C° 0 mm 7 mps 734 mmHg 23%
    13:00 +45°C° 0 mm 6 mps 734 mmHg 21%
    14:00 +46°C° 0 mm 6 mps 733 mmHg 19%
    15:00 +46°C° 0 mm 6 mps 732 mmHg 18%
    16:00 +46°C° 0 mm 5 mps 731 mmHg 18%
    17:00 +46°C° 0 mm 5 mps 730 mmHg 18%
    18:00 +42°C° 0 mm 4 mps 730 mmHg 21%
    19:00 +40°C° 0 mm 4 mps 731 mmHg 25%
    20:00 +36°C° 0 mm 3 mps 731 mmHg 28%
    21:00 +35°C° 0 mm 3 mps 732 mmHg 29%
    22:00 +35°C° 0 mm 2 mps 732 mmHg 31%
    23:00 +34°C° 0 mm 2 mps 733 mmHg 32%

    12 December, Thursday

    Time Temperature Precipitation Wind Pressure Humidity
    00:00 +32°C° 0.1 mm 4 mps 733 mmHg 36%
    01:00 +30°C° 0.1 mm 5 mps 733 mmHg 41%
    02:00 +29°C° 0.1 mm 6 mps 734 mmHg 45%
    03:00 +27°C° 0.1 mm 6 mps 734 mmHg 51%
    04:00 +26°C° 0.1 mm 6 mps 735 mmHg 56%
    05:00 +24°C° 0.1 mm 6 mps 736 mmHg 61%
    06:00 +26°C° 0.2 mm 7 mps 737 mmHg 60%
    07:00 +27°C° 0.2 mm 7 mps 738 mmHg 58%
    08:00 +28°C° 0.2 mm 7 mps 739 mmHg 57%
    09:00 +30°C° 0 mm 7 mps 739 mmHg 49%
    10:00 +33°C° 0 mm 6 mps 740 mmHg 42%
    11:00 +35°C° 0 mm 6 mps 740 mmHg 34%
    12:00 +36°C° 0 mm 6 mps 740 mmHg 31%
    13:00 +38°C° 0 mm 7 mps 739 mmHg 28%
    14:00 +39°C° 0 mm 7 mps 739 mmHg 26%
    15:00 +38°C° 0 mm 6 mps 738 mmHg 26%
    16:00 +38°C° 0 mm 6 mps 738 mmHg 26%
    17:00 +36°C° 0 mm 6 mps 737 mmHg 26%
    18:00 +34°C° 0 mm 5 mps 738 mmHg 29%
    19:00 +33°C° 0 mm 4 mps 738 mmHg 32%
    20:00 +30°C° 0 mm 3 mps 739 mmHg 35%
    21:00 +29°C° 0 mm 3 mps 739 mmHg 34%
    22:00 +29°C° 0 mm 3 mps 740 mmHg 34%
    23:00 +28°C° 0 mm 3 mps 740 mmHg 34%

    13 December, Friday

    Time Temperature Precipitation Wind Pressure Humidity
    00:00 +28°C° 0 mm 4 mps 740 mmHg 27%
    01:00 +29°C° 0 mm 4 mps 740 mmHg 21%
    02:00 +29°C° 0 mm 5 mps 740 mmHg 14%
    03:00 +28°C° 0 mm 4 mps 740 mmHg 14%
    04:00 +28°C° 0 mm 4 mps 740 mmHg 14%
    05:00 +27°C° 0 mm 3 mps 740 mmHg 13%
    06:00 +27°C° 0 mm 3 mps 741 mmHg 15%
    07:00 +27°C° 0 mm 3 mps 741 mmHg 16%
    08:00 +27°C° 0 mm 3 mps 742 mmHg 17%
    09:00 +26°C° 0 mm 3 mps 742 mmHg 18%
    10:00 +26°C° 0 mm 3 mps 742 mmHg 18%
    11:00 +26°C° 0 mm 4 mps 742 mmHg 18%
    12:00 +28°C° 0 mm 3 mps 742 mmHg 20%
    13:00 +29°C° 0 mm 3 mps 741 mmHg 23%
    14:00 +30°C° 0 mm 3 mps 740 mmHg 25%
    15:00 +31°C° 0 mm 3 mps 739 mmHg 27%
    16:00 +34°C° 0 mm 3 mps 738 mmHg 29%
    17:00 +35°C° 0 mm 3 mps 738 mmHg 31%
    18:00 +33°C° 0 mm 3 mps 738 mmHg 34%
    19:00 +30°C° 0 mm 2 mps 738 mmHg 37%
    20:00 +28°C° 0 mm 2 mps 738 mmHg 41%
    21:00 +28°C° 0 mm 2 mps 739 mmHg 41%
    22:00 +28°C° 0 mm 3 mps 739 mmHg 42%
    23:00 +27°C° 0 mm 3 mps 739 mmHg 42%

    14 December, Saturday

    Time Temperature Precipitation Wind Pressure Humidity
    00:00 +27°C° 0 mm 3 mps 739 mmHg 44%
    01:00 +26°C° 0 mm 2 mps 738 mmHg 46%
    02:00 +25°C° 0 mm 2 mps 738 mmHg 49%
    03:00 +25°C° 0 mm 2 mps 738 mmHg 47%
    04:00 +26°C° 0 mm 2 mps 738 mmHg 45%
    05:00 +26°C° 0 mm 2 mps 738 mmHg 43%
    06:00 +27°C° 0 mm 2 mps 739 mmHg 43%
    07:00 +28°C° 0 mm 3 mps 739 mmHg 42%
    08:00 +28°C° 0 mm 3 mps 739 mmHg 41%
    09:00 +31°C° 0 mm 3 mps 739 mmHg 42%
    10:00 +34°C° 0 mm 2 mps 739 mmHg 42%
    11:00 +36°C° 0 mm 2 mps 739 mmHg 42%
    12:00 +36°C° 0 mm 2 mps 738 mmHg 42%
    13:00 +37°C° 0 mm 2 mps 738 mmHg 42%
    14:00 +38°C° 0 mm 2 mps 737 mmHg 42%
    15:00 +37°C° 0 mm 2 mps 736 mmHg 43%
    16:00 +37°C° 0 mm 3 mps 736 mmHg 45%
    17:00 +36°C° 0 mm 3 mps 736 mmHg 46%
    18:00 +35°C° 0.1 mm 4 mps 736 mmHg 51%
    19:00 +33°C° 0.1 mm 4 mps 737 mmHg 56%
    20:00 +32°C° 0.1 mm 4 mps 737 mmHg 61%
    21:00 +30°C° 0.7 mm 4 mps 737 mmHg 67%
    22:00 +29°C° 0.7 mm 4 mps 738 mmHg 72%
    23:00 +28°C° 0.7 mm 4 mps 738 mmHg 77%
    Show more